Location: Vancouver
(49.2827°N, 123.1207°W)
Time: 02:03:14
(UTC-07:00)

ISS - Visible Passes

Search period start: 03 April 2020 00:00
Search period end: 13 April 2020 00:00
Orbit: 418 x 423 km, 51.6° (Epoch: 03 April)

Date Brightness Start Highest point End Pass type
(mag) Time Alt. Az. Time Alt. Az. Time Alt. Az.
03 Apr -1.6 21:21:08 10° W 21:23:38 19° SW 21:25:17 14° S visible
04 Apr -2.1 20:33:41 10° W 20:36:38 28° SW 20:39:33 10° SSE visible
06 Apr -1.0 20:37:10 10° WSW 20:38:43 13° SW 20:40:16 10° SSW visible
